• In Uzbekistan
  • List of Countries
  • For 7 days
  • Water Temperature
  • Satellite Maps
  • Weather Map
  • Weather Widgets
  • user-avatar
    Login

    Hourly Weather Grand Sess

    Today, 18 December, Monday

    Time Temperature Precipitation Wind Pressure Humidity
    00:00 +27°C° 0 mm 2 mps 757 mmHg 90%
    01:00 +27°C° 0 mm 2 mps 757 mmHg 90%
    02:00 +27°C° 0 mm 3 mps 757 mmHg 90%
    03:00 +27°C° 0 mm 3 mps 757 mmHg 90%
    04:00 +27°C° 0 mm 3 mps 757 mmHg 90%
    05:00 +27°C° 0 mm 2 mps 757 mmHg 90%
    06:00 +28°C° 0 mm 3 mps 757 mmHg 87%
    07:00 +28°C° 0 mm 3 mps 757 mmHg 85%
    08:00 +29°C° 0 mm 3 mps 758 mmHg 82%
    09:00 +30°C° 0.1 mm 3 mps 757 mmHg 76%
    10:00 +31°C° 0.1 mm 3 mps 757 mmHg 70%
    11:00 +34°C° 0.1 mm 4 mps 757 mmHg 64%
    12:00 +33°C° 0.3 mm 4 mps 757 mmHg 65%
    13:00 +33°C° 0.3 mm 4 mps 756 mmHg 66%
    14:00 +33°C° 0.3 mm 4 mps 755 mmHg 67%
    15:00 +32°C° 0.3 mm 4 mps 755 mmHg 72%
    16:00 +30°C° 0.3 mm 4 mps 755 mmHg 77%
    17:00 +29°C° 0.3 mm 4 mps 755 mmHg 82%
    18:00 +28°C° 0.1 mm 4 mps 756 mmHg 85%
    19:00 +28°C° 0.1 mm 4 mps 756 mmHg 87%
    20:00 +28°C° 0.1 mm 3 mps 757 mmHg 89%
    21:00 +28°C° 0 mm 3 mps 757 mmHg 89%
    22:00 +27°C° 0 mm 3 mps 757 mmHg 90%
    23:00 +27°C° 0 mm 3 mps 757 mmHg 91%

    Tomorrow, 19 December, Tuesday

    Time Temperature Precipitation Wind Pressure Humidity
    00:00 +27°C° 0.1 mm 3 mps 757 mmHg 91%
    01:00 +27°C° 0.1 mm 3 mps 757 mmHg 91%
    02:00 +27°C° 0.1 mm 3 mps 756 mmHg 92%
    03:00 +27°C° 0.2 mm 3 mps 756 mmHg 92%
    04:00 +27°C° 0.2 mm 3 mps 756 mmHg 92%
    05:00 +27°C° 0.2 mm 3 mps 756 mmHg 92%
    06:00 +28°C° 0.5 mm 2 mps 757 mmHg 88%
    07:00 +28°C° 0.5 mm 2 mps 757 mmHg 84%
    08:00 +29°C° 0.5 mm 2 mps 758 mmHg 79%
    09:00 +30°C° 0.6 mm 2 mps 758 mmHg 76%
    10:00 +31°C° 0.6 mm 2 mps 758 mmHg 72%
    11:00 +31°C° 0.6 mm 3 mps 757 mmHg 69%
    12:00 +31°C° 0.3 mm 3 mps 757 mmHg 68%
    13:00 +31°C° 0.3 mm 3 mps 756 mmHg 68%
    14:00 +32°C° 0.3 mm 4 mps 755 mmHg 68%
    15:00 +31°C° 0.1 mm 3 mps 755 mmHg 71%
    16:00 +30°C° 0.1 mm 3 mps 755 mmHg 75%
    17:00 +29°C° 0.1 mm 3 mps 756 mmHg 78%
    18:00 +29°C° 0.3 mm 3 mps 756 mmHg 81%
    19:00 +28°C° 0.3 mm 3 mps 757 mmHg 84%
    20:00 +27°C° 0.3 mm 2 mps 757 mmHg 87%
    21:00 +27°C° 0.1 mm 2 mps 757 mmHg 87%
    22:00 +27°C° 0.1 mm 2 mps 757 mmHg 88%
    23:00 +27°C° 0.1 mm 2 mps 757 mmHg 88%

    Day after tomorrow, 20 December, Wednesday

    Time Temperature Precipitation Wind Pressure Humidity
    00:00 +27°C° 0 mm 2 mps 756 mmHg 89%
    01:00 +27°C° 0 mm 2 mps 756 mmHg 89%
    02:00 +27°C° 0 mm 2 mps 755 mmHg 90%
    03:00 +27°C° 0 mm 2 mps 755 mmHg 90%
    04:00 +27°C° 0 mm 2 mps 755 mmHg 90%
    05:00 +27°C° 0 mm 2 mps 756 mmHg 90%
    06:00 +27°C° 0.1 mm 2 mps 756 mmHg 86%
    07:00 +28°C° 0.1 mm 2 mps 757 mmHg 82%
    08:00 +29°C° 0.1 mm 2 mps 757 mmHg 78%
    09:00 +30°C° 0.6 mm 2 mps 757 mmHg 75%
    10:00 +31°C° 0.6 mm 2 mps 757 mmHg 72%
    11:00 +31°C° 0.6 mm 2 mps 757 mmHg 69%
    12:00 +31°C° 1.6 mm 2 mps 756 mmHg 71%
    13:00 +31°C° 1.6 mm 3 mps 756 mmHg 73%
    14:00 +31°C° 1.6 mm 3 mps 755 mmHg 74%
    15:00 +30°C° 1 mm 3 mps 755 mmHg 77%
    16:00 +29°C° 1 mm 3 mps 755 mmHg 80%
    17:00 +28°C° 1 mm 3 mps 755 mmHg 83%
    18:00 +28°C° 0.1 mm 3 mps 756 mmHg 85%
    19:00 +27°C° 0.1 mm 2 mps 757 mmHg 87%
    20:00 +27°C° 0.1 mm 2 mps 757 mmHg 89%
    21:00 +27°C° 0 mm 2 mps 757 mmHg 89%
    22:00 +27°C° 0 mm 2 mps 757 mmHg 90%
    23:00 +27°C° 0 mm 2 mps 757 mmHg 90%

    21 December, Thursday

    Time Temperature Precipitation Wind Pressure Humidity
    00:00 +26°C° 0 mm 2 mps 757 mmHg 90%
    01:00 +26°C° 0 mm 2 mps 756 mmHg 91%
    02:00 +26°C° 0 mm 2 mps 756 mmHg 91%
    03:00 +26°C° 0 mm 2 mps 756 mmHg 91%
    04:00 +26°C° 0 mm 2 mps 756 mmHg 91%
    05:00 +26°C° 0 mm 2 mps 756 mmHg 91%
    06:00 +27°C° 0.5 mm 2 mps 757 mmHg 87%
    07:00 +28°C° 0.5 mm 2 mps 757 mmHg 83%
    08:00 +29°C° 0.5 mm 2 mps 758 mmHg 79%
    09:00 +30°C° 0.2 mm 2 mps 758 mmHg 76%
    10:00 +31°C° 0.2 mm 2 mps 757 mmHg 72%
    11:00 +33°C° 0.2 mm 3 mps 757 mmHg 69%
    12:00 +31°C° 0.7 mm 3 mps 756 mmHg 71%
    13:00 +31°C° 0.7 mm 3 mps 756 mmHg 74%
    14:00 +30°C° 0.7 mm 3 mps 755 mmHg 76%
    15:00 +30°C° 0.7 mm 3 mps 756 mmHg 79%
    16:00 +29°C° 0.7 mm 2 mps 756 mmHg 82%
    17:00 +28°C° 0.7 mm 2 mps 756 mmHg 84%
    18:00 +28°C° 0.8 mm 2 mps 757 mmHg 86%
    19:00 +27°C° 0.8 mm 1 mps 758 mmHg 88%
    20:00 +27°C° 0.8 mm 1 mps 758 mmHg 90%
    21:00 +27°C° 0.5 mm 1 mps 758 mmHg 91%
    22:00 +26°C° 0.5 mm 1 mps 758 mmHg 91%
    23:00 +26°C° 0.5 mm 1 mps 758 mmHg 91%

    22 December, Friday

    Time Temperature Precipitation Wind Pressure Humidity
    00:00 +26°C° 0 mm 1 mps 757 mmHg 91%
    01:00 +26°C° 0 mm 1 mps 757 mmHg 91%
    02:00 +26°C° 0 mm 1 mps 756 mmHg 91%
    03:00 +26°C° 0 mm 1 mps 756 mmHg 91%
    04:00 +26°C° 0 mm 1 mps 756 mmHg 91%
    05:00 +26°C° 0 mm 1 mps 757 mmHg 91%
    06:00 +27°C° 0 mm 1 mps 757 mmHg 86%
    07:00 +29°C° 0 mm 1 mps 758 mmHg 82%
    08:00 +28°C° 0 mm 0 mps 758 mmHg 77%
    09:00 +31°C° 0.3 mm 1 mps 758 mmHg 73%
    10:00 +32°C° 0.3 mm 1 mps 758 mmHg 69%
    11:00 +33°C° 0.3 mm 1 mps 757 mmHg 65%
    12:00 +32°C° 0.6 mm 1 mps 757 mmHg 67%
    13:00 +31°C° 0.6 mm 1 mps 756 mmHg 70%
    14:00 +31°C° 0.6 mm 2 mps 755 mmHg 73%
    15:00 +30°C° 0.6 mm 2 mps 755 mmHg 77%
    16:00 +29°C° 0.6 mm 2 mps 756 mmHg 80%
    17:00 +28°C° 0.6 mm 2 mps 756 mmHg 84%
    18:00 +28°C° 0.9 mm 2 mps 756 mmHg 85%
    19:00 +27°C° 0.9 mm 2 mps 757 mmHg 87%
    20:00 +27°C° 0.9 mm 1 mps 757 mmHg 89%
    21:00 +27°C° 0.6 mm 2 mps 757 mmHg 89%
    22:00 +27°C° 0.6 mm 2 mps 757 mmHg 90%
    23:00 +26°C° 0.6 mm 2 mps 757 mmHg 90%

    23 December, Saturday

    Time Temperature Precipitation Wind Pressure Humidity
    00:00 +26°C° 0.5 mm 2 mps 756 mmHg 90%
    01:00 +26°C° 0.5 mm 1 mps 756 mmHg 90%
    02:00 +26°C° 0.5 mm 1 mps 755 mmHg 90%
    03:00 +26°C° 0 mm 1 mps 756 mmHg 90%
    04:00 +26°C° 0 mm 1 mps 756 mmHg 91%
    05:00 +25°C° 0 mm 1 mps 756 mmHg 91%
    06:00 +26°C° 0.5 mm 1 mps 757 mmHg 88%
    07:00 +27°C° 0.5 mm 2 mps 757 mmHg 84%
    08:00 +28°C° 0.5 mm 2 mps 758 mmHg 80%
    09:00 +30°C° 0.2 mm 2 mps 757 mmHg 71%
    10:00 +32°C° 0.2 mm 1 mps 757 mmHg 61%
    11:00 +33°C° 0.2 mm 1 mps 757 mmHg 51%
    12:00 +35°C° 0 mm 2 mps 756 mmHg 50%
    13:00 +35°C° 0 mm 2 mps 756 mmHg 48%
    14:00 +35°C° 0 mm 3 mps 755 mmHg 47%
    15:00 +33°C° 0.2 mm 3 mps 755 mmHg 55%
    16:00 +31°C° 0.2 mm 3 mps 755 mmHg 64%
    17:00 +29°C° 0.2 mm 3 mps 755 mmHg 73%
    18:00 +28°C° 0.1 mm 3 mps 756 mmHg 76%
    19:00 +28°C° 0.1 mm 2 mps 756 mmHg 80%
    20:00 +27°C° 0.1 mm 2 mps 757 mmHg 84%
    21:00 +27°C° 0 mm 2 mps 757 mmHg 85%
    22:00 +27°C° 0 mm 2 mps 757 mmHg 86%
    23:00 +27°C° 0 mm 1 mps 756 mmHg 86%
    Show more